Regional Weather Roundup
Issued by NWS Wakefield, VA

Home | Current Version | Previous Version | Graphics & Text | Print | Product List | Glossary On
Versions: 1 2 3 4 5 6 7 8 9 10 11 12 13 14 15 16 17 18 19 20 21 22 23 24 25 26 27 28 29 30 31 32 33 34 35 36 37 38 39 40 41 42 43 44 45 46 47 48 49 50
464
ASUS41 KAKQ 160415
RWRAKQ

REGIONAL WEATHER ROUNDUP
NATIONAL WEATHER SERVICE WAKEFIELD VA
1100 PM EST SUN JAN 15 2017

Note: "fair" indicates few or no clouds below 12,000 feet with no
significant weather and/or obstructions to visibility. * = Denotes
station may not report precipitation (e.g., rain,snow,etc.),
thunder or fog.

VAZ042-051-052>054-056-160500-
NORTHERN VIRGINIA

CITY           SKY/WX    TMP DP  RH WIND       PRES   REMARKS
WASH NATIONAL  CLOUDY    40  27  59 CALM      30.43S
DULLES         CLOUDY    38  23  55 CALM      30.42R
FORT BELVOIR   CLOUDY    39  28  63 CALM      30.42S
QUANTICO       CLOUDY    41  32  70 E5        30.44S
FREDERICKSBRG* LGT RAIN  41  34  76 CALM      30.42S
STAFFORD*      CLOUDY    38  34  85 CALM      30.46S
WARRENTON      CLOUDY    40  28  61 CALM      30.41S
CULPEPER*      CLOUDY    40  28  62 CALM      30.43R
MANASSAS*      NOT AVBL
LEESBURG*      CLOUDY    39  27  60 MISG      30.42S
WINCHESTER     CLOUDY    36  25  64 CALM      30.38F
FRONT ROYAL*   NOT AVBL
LURAY*         CLOUDY    37  30  75 NE5       30.37S
$$

VAZ048-049-060>072-079>083-160500-
CENTRAL AND SOUTH CENTRAL VIRGINIA

CITY           SKY/WX    TMP DP  RH WIND       PRES   REMARKS
RICHMOND       CLOUDY    43  26  51 CALM      30.41S
CHESTERFIELD*  CLOUDY    45  19  36 CALM      30.43R
PETERSBURG*    CLOUDY    43  34  70 CALM      30.42R
HANOVER        CLOUDY    42  29  59 CALM      30.43R
TAPPAHANNOCK*  CLOUDY    40  23  51 CALM      30.43S
QUINTON*       CLOUDY    42  27  54 NE5       30.42R
CHARLOTTSVILLE LGT RAIN  42  40  92 CALM      30.38F
GORDONSVILLE*  CLOUDY    41  39  94 CALM      30.40R
ORANGE*        DRIZZLE   41  41 100 CALM      30.42R
LOUISA*        RAIN      45  43  93 CALM      30.39S
BUMPASS*       CLOUDY    41  39  91 CALM      30.40S
FARMVILLE*     DRIZZLE   43  41  93 NE3       30.39S
CREWE*         CLOUDY    42  42 100 CALM      30.40R
FORT PICKETT*  CLOUDY    43  30  59 CALM      30.40S
CHASE CITY*    CLOUDY    45  29  54 E3        30.38R
CLARKSVILLE*   CLOUDY    45  32  61 E5        30.37S
SOUTH HILL*    CLOUDY    44  30  59 CALM      30.44F
LAWRENCEVILLE* CLOUDY    44  29  56 CALM      30.39F
EMPORIA*       CLOUDY    43  28  56 E3        30.42S
$$

VAZ088>098-160500-
SOUTHEAST VIRGINIA

CITY           SKY/WX    TMP DP  RH WIND       PRES   REMARKS
NORFOLK        CLOUDY    42  34  73 CALM      30.41R
VIRGINIA BEACH CLOUDY    40  35  83 CALM      30.40S
NORFOLK NAVAL  CLOUDY    42  33  70 CALM      30.43S
WEST POINT*    CLOUDY    41  30  64 CALM      30.44R
SALUDA*        CLOUDY    40  28  63 CALM      30.42R
NEWPORT NEWS   CLOUDY    41  31  67 CALM      30.42R
LANGLEY AFB    MIX PCPN  41  31  67 CALM      30.41R
FORT EUSTIS    CLOUDY    42  28  57 CALM      30.40R
WILLIAMSBURG*  CLOUDY    43  30  61 CALM      30.43R
HR EXEC AP*    CLOUDY    39  30  70 CALM      30.41R
FRANKLIN*      CLOUDY    41  26  54 CALM      30.43R
US460-WAKEFLD  CLOUDY    42  30  62 CALM      30.42R
$$

VAZ020-022-025-037-045-160500-
WEST CENTRAL AND SOUTHWEST VIRGINIA

CITY           SKY/WX    TMP DP  RH WIND       PRES   REMARKS
STAUNTON*      CLOUDY    40  38  96 CALM      30.37S
WAYNESBORO*    CLOUDY    39  38  96 SE7       30.34S
HOT SPRINGS VA LGT RAIN  39  39 100 S5        30.26S
LYNCHBURG      LGT RAIN  41  40  96 NE3       30.39S FOG
DANVILLE       CLOUDY    47  38  71 E5        30.37S
SOUTH BOSTON*  CLOUDY    46  34  62 E3        30.38S
MARTINSVILLE   CLOUDY    48  40  74 E5        30.37S
ROANOKE        LGT RAIN  43  42  97 SE6       30.37F FOG
BLACKSBURG     RAIN      43  43 100 E6        30.35S
DUBLIN*        DRIZZLE   46  46 100 NE7       30.33S
MARION*        DRIZZLE   55  54  96 W7        30.31S
HILLSVILLE*    DRIZZLE   46  46 100 S6        30.29S
RICHLANDS*     FOG      N/A N/A N/A CALM      30.29S VSB 1/4
WISE*          FOG       48  48 100 CALM      30.30S VSB 1
ABINGDON*      CLOUDY    56  56 100 CALM      30.29F FOG
$$

MDZ021>025-VAZ099-100-160500-
SOUTHERN MARYLAND AND THE DELMARVA PENINSULA

CITY           SKY/WX    TMP DP  RH WIND       PRES   REMARKS
PATUXENT RIVER CLOUDY    39  30  70 CALM      30.42S
BAY BRIDGE APT CLOUDY    37  27  65 N3        30.43S
LEONARDTOWN    CLOUDY    36  30  80 CALM      30.43F
DOVER          CLOUDY    33  31  90 N3        30.42R
GEORGETOWN     CLOUDY    38  28  67 CALM      30.42F
EASTON         CLOUDY    38  29  69 CALM      30.46S
CAMBRIDGE      CLOUDY    36  32  87 CALM      30.42F
SALISBURY      CLOUDY    37  29  72 N3        30.42S
OCEAN CITY     CLOUDY    37  33  85 NW3       30.42S
WALLOPS ISLAND CLOUDY    39  33  79 N3        30.42S
ACCOMACK*      CLOUDY    38  35  86 CALM      30.41F
$$

NCZ012>017-030>032-160500-
NORTH CENTRAL AND EASTERN NORTH CAROLINA

CITY           SKY/WX    TMP DP  RH WIND       PRES   REMARKS
ROANOKE RAPIDS CLOUDY    45  32  61 NE3       30.39F
RALEIGH        CLOUDY    47  39  74 E6        30.37R
ELIZABETH CITY CLOUDY    41  37  86 N8        30.40S
AHOSKIE*         N/A     42  28  57 CALM      30.41S
EDENTON*       CLOUDY    43  37  79 CALM      30.41S
CURRITUCK*     CLOUDY    39  39  98 CALM      30.41S
KILL DEVIL HLS NOT AVBL
MANTEO         CLOUDY    41  37  84 NE6       30.39F
CAPE HATTERAS  PTCLDY    45  40  82 NE7       30.37S HAZE
TARBORO*       NOT AVBL
GOLDSBORO      CLOUDY    48  44  87 E7        30.35S
WASHINGTON     CLOUDY    41  38  90 NE6       30.39S
GREENVILLE     CLOUDY    45  41  87 E5        30.39S
NEW BERN       CLOUDY    44  40  85 NE8       30.38S
WILMINGTON     CLOUDY    50  44  80 E5        30.34F
$$

VAZ048-160500-
ELSEWHERE

CITY           SKY/WX    TMP DP  RH WIND       PRES   REMARKS
HARRISBURG PA  MOCLDY    27  22  81 CALM      30.43R
BALTIMORE      CLOUDY    36  27  69 E6        30.42S
ANNAPOLIS      CLOUDY    38  32  79 CALM      30.42S
ANDREWS AFB    CLOUDY    37  28  68 CALM      30.40F
PHILADELPHIA   CLOUDY    33  20  58 N12       30.44S WCI  24
HENDERSON NC   CLOUDY    44  29  56 E5        30.37S
GREENSBORO     CLOUDY    48  45  89 E5        30.33S
ROCKY MOUNT    CLOUDY    47  38  71 NE5       30.39R
$$

VAZ100-160500-
MARINE

STATION/POSITION TIME  TEMP    WIND        PRES    WAVE   SWELL
                       AIR SEA DIR/SP/G            HT/PER HT/PER
                 (UTC) (F)     (DEG/KT/KT) (MB)    (FT/S) (FT/S)
CAPE MAY NJ      0348   36 40   40/  3/  4 1029.7F
LEWES DE         0348   39 41   20/  8/ 10 1029.9F
OCEAN-CITY-INLET 0348   39 42  340/  4/  4 1030.4F
WACHAPREAGUE VA  0348   39 44  350/  2/  4 1029.9S
THOMAS POINT MD  0400   38 39   10/  3/  3   N/A
GOOSES REEF MD   0400   38     360/  4/  4 1030.7
COVE POINT MD    0348   38      30/  3/  4 1030.5F
SOLOMONS ISLAND  0348   39 41   40/  1/  2   N/A
BISHOPS HEAD MD  0336   38 41   10/  4/  4 1030.5S
PINEY POINT MD   0348           70/  3/  4   N/A
POTOMAC MD       0400   40 40   50/  6/  8 1029.0    0
CAMBRIDGE MD     0348   38 38   CALM  /  1 1029.7R
LEWISETTA VA     0348   40 42   30/  2/  3 1029.7F
RAPPAHANNOCK LGT 0348           30/ 12/ 13 1030.0F
STINGRAY PT      0350   40      30/  6/  8 1030.1R
YORK RVR RNG VA  0348   41      80/  4/  4 1029.3R
YORKTOWN VA      0348   41 42   CALM  /  1 1029.8R
JAMESTOWN VA     0400   42 43  290/  4/  4   N/A
DOMINION TERM VA 0348   41      70/  3/  4 1029.9S
KIPTOPEKE VA     0348      42  130/  3/  3   N/A
CHES BAY BRIDGE  0348   40 42   60/  2/  2 1029.8R
CAPE HENRY VA    0348   41      30/  2/  3   N/A
WILLOUBY STN VA  0348   41      80/  4/  4 1030.6F
S CRANEY ISL VA  0348   41     100/  3/  3 1029.6F
CAPE HENRY BUOY  0342      47                N/A     3/11   2/11
OFFSHORE WE BUOY 0351      49                N/A     3/ 6   2/11
64NM E OF VA BCH 0350   49 64   30/ 14/ 16 1028.1F   4/ 6   3/ 6
DUCK PIER NC     0348   44 44   20/ 10/ 12 1028.6F
44100 DUCK FRF   0305      46                N/A     4/ 6   2/11
44056 DUCK FRF   0330      44                N/A     3/11   2/11
OREGON INLET NC  0336   44 50  360/  9/ 12 1029.0R
HATTERAS NC      0348   44 54   30/ 11/ 15 1027.8F
DIAMOND SHLS NC  0350   53 74   20/ 16/ 19 1027.7S   4/11   3/11
CAPE LOOKOUT NC  0400   47      10/ 10/ 14 1027.6F
$$




USA.gov is the U.S. government's official web portal to all federal, state and local government web resources and services.